Hlavní strana
METAR-TAF:

METAR-TAF

Letiště :

Thomaston-Upson County Airport

Thomaston, Georgie, Spojené státy americké

zeměpisná šířka: 32-57-18N, zeměpisná délka: 084-15-52W, výška: 243 m

Aktuální stav počasí

Zpráva byla vytvořena před 26 minutami, v 23:15 UTC
Bezvětří
Teplota 9°C
Vlhkost vzduchu 71%
Tlak 1017 hPa
Viditelnost: 16.1 km
Zataženo ve výšce 6500 ft

METAR: KOPN 262315Z AUTO 00000KT 10SM OVC065 09/04 A3004 RMK AO2

Čas: 18:41 (23:41 UTC)


TAF: chybějící

Stav a předpovědi počasí z více než 4 000 letišť (zprávy METAR a TAF).

Červené a žluté tečky na mapě představují dostupné meteorologické stanice.

Když kurzor umístíte na tečku, zobrazí se název stanice.

Pak kliknutím zobrazíte stav a předpověď počasí.

Chcete-li změnit mapu, kliknutím na zelené tlačítko se znaménkem +mapu přiblížíte, kliknutím na zelené tlačítko se znaménkem – mapu oddálíte a kliknutím na zelené šipky přejdete na sousední mapy.


METAR-TAF: